Theta_e
340 344 346 350 355 359 363 366 366 369 368 364 359 365 358 362 361 357 357 358 366 368 369 362 359 356 353 349 338 342 347 348 351 346 345 349 352 352 351 352 349 347 349
340 345 349 351 355 359 363 367 368 370 369 366 366 371 366 362 367 369 370 369 369 367 367 362 359 359 353 346 344 340 341 345 347 340 339 336 341 346 350 350 349 348 348
340 345 348 350 354 357 363 366 369 371 368 368 368 371 369 370 364 365 369 369 367 370 367 366 362 359 358 353 348 344 344 342 345 345 341 335 334 340 345 348 349 349 349
342 347 350 352 352 356 363 369 371 372 371 372 368 371 366 361 360 363 366 367 368 367 365 364 364 362 360 355 355 353 353 350 343 347 346 343 342 335 333 342 348 350 352
340 343 347 352 352 354 359 365 370 372 374 372 373 368 366 362 368 363 361 366 364 364 363 364 361 364 362 360 356 357 357 354 350 346 345 341 339 339 337 333 338 344 350
340 344 347 352 351 352 353 362 369 372 373 374 372 371 370 367 363 358 354 353 350 348 351 355 355 357 357 355 353 353 355 352 352 350 349 345 340 336 336 335 338 340 345
335 341 343 346 350 349 351 357 367 369 371 370 369 369 368 365 360 359 353 351 343 343 345 354 352 349 353 351 351 349 349 348 348 348 348 351 347 347 344 339 337 337 342
334 338 341 344 346 348 352 354 365 367 370 368 369 365 362 356 356 354 350 346 343 345 349 349 348 348 348 348 348 346 345 344 344 346 348 347 348 350 347 343 339 334 333
334 338 341 343 346 347 352 354 364 368 367 361 360 359 358 356 354 355 354 345 347 340 342 345 345 345 346 346 346 342 342 343 342 343 344 344 345 347 347 348 346 340 332
331 338 341 343 345 348 351 356 364 360 359 358 356 354 353 353 353 352 348 347 346 347 346 345 345 344 344 344 344 341 341 340 339 339 339 339 339 340 343 344 345 345 338
333 340 342 347 345 345 350 354 356 356 355 354 353 351 349 348 349 348 346 346 348 347 346 345 344 343 343 342 341 340 339 335 333 335 335 334 334 335 338 341 342 342 342
336 340 342 343 342 344 350 350 352 353 352 353 351 350 348 347 346 345 344 344 342 343 343 344 344 343 341 341 338 336 333 331 331 330 331 330 331 331 334 337 338 339 341
335 342 344 344 344 347 349 350 350 350 350 349 347 347 348 348 346 345 345 344 342 342 344 343 342 340 339 338 336 332 331 329 329 328 327 325 325 323 326 331 335 338 340
342 343 354 351 351 353 351 348 347 348 349 346 345 345 346 346 343 344 343 345 346 343 342 342 341 340 338 335 333 327 326 325 325 326 325 324 322 322 325 330 333 335 336
335 343 351 353 353 353 352 350 348 350 348 345 343 344 345 343 341 341 340 343 343 342 342 341 338 337 335 329 328 326 324 323 322 322 322 322 323 325 326 330 332 333 334
329 338 346 351 350 351 350 349 350 348 347 343 341 343 343 340 340 340 339 342 342 342 340 337 336 333 331 324 324 325 322 321 320 318 320 320 323 324 325 327 330 332 333
328 337 343 351 352 351 351 348 349 348 346 343 341 341 341 338 340 340 341 341 342 342 338 337 333 334 331 323 322 323 320 318 319 318 317 318 322 324 325 330 329 329 331
329 337 338 348 353 352 351 348 348 346 342 341 340 340 339 337 340 343 342 343 344 340 336 334 336 333 331 322 319 319 319 320 317 316 316 318 318 321 329 332 333 335 336
339 346 344 351 354 351 351 346 343 343 340 338 339 339 338 338 340 340 342 343 341 338 335 336 334 333 330 318 316 317 319 319 318 320 319 318 320 325 325 332 333 335 338
342 342 340 344 353 353 348 342 342 340 338 338 340 341 340 340 339 341 342 344 342 337 336 333 336 325 327 318 314 316 319 318 317 321 325 325 324 323 320 329 334 334 337
338 339 343 345 352 352 345 343 342 340 341 341 342 341 340 341 342 342 344 342 340 337 334 334 335 329 324 325 314 312 318 317 319 318 319 317 313 311 312 315 328 329 337
336 338 346 349 352 349 345 342 341 343 341 342 341 339 340 337 337 344 343 341 339 335 332 335 328 328 326 317 317 310 310 315 318 319 319 318 310 310 310 317 312 315 326
341 342 344 349 348 348 345 344 346 348 344 342 342 341 342 338 341 340 338 335 336 334 324 328 324 324 323 324 315 311 311 316 317 322 318 314 311 312 317 314 315 320 328
338 341 344 345 340 345 346 346 348 348 340 338 336 334 333 338 338 336 334 332 334 333 329 324 323 323 322 320 317 312 317 315 320 319 322 319 317 316 318 320 320 321 321
333 334 339 342 336 343 343 343 343 336 327 324 325 328 331 331 330 334 320 330 320 323 326 322 322 317 316 314 301 300 309 309 313 319 323 322 322 321 321 320 319 319 320
328 329 331 333 340 341 334 324 323 323 318 319 322 322 327 329 329 326 316 306 305 302 303 300 310 317 306 298 298 297 298 300 305 317 316 317 320 320 318 318 321 323 320
Wind_Speed
17 16 15 14 14 12 11 9 9 9 6 6 6 3 4 4 4 4 10 13 5 4 4 2 5 5 4 2 11 8 6 7 9 6 8 10 9 10 9 10 10 11 11
17 17 15 14 14 13 12 11 10 10 7 5 4 3 3 3 3 4 4 5 5 4 3 5 5 7 6 7 10 10 7 5 2 7 9 6 7 8 11 11 11 13 10
18 17 16 15 14 14 13 12 11 10 9 8 6 4 4 4 4 5 2 1 4 7 7 6 6 8 6 5 9 8 12 9 7 11 6 4 5 5 7 14 12 13 9
20 18 17 16 16 15 14 12 12 9 11 10 7 6 3 3 4 5 4 3 6 8 7 7 7 6 5 8 8 8 9 8 8 4 9 7 3 5 12 12 7 12 9
22 23 21 17 15 15 14 13 12 11 8 10 7 5 6 5 2 3 7 5 5 4 6 5 6 2 4 5 7 8 7 6 8 7 5 6 9 11 12 10 13 11 5
19 19 18 19 15 14 14 15 14 10 9 9 9 7 4 2 3 4 3 4 4 4 5 6 5 3 4 5 5 6 7 7 8 8 9 8 6 8 10 12 11 15 13
16 15 18 17 14 14 14 14 15 12 11 9 9 9 5 2 3 4 3 5 5 4 5 5 4 5 5 7 7 7 8 9 9 11 9 8 10 10 10 10 12 11 6
25 28 22 18 17 14 13 13 16 13 11 11 7 6 5 3 2 5 3 3 4 4 6 6 7 7 7 7 7 7 7 9 9 12 10 9 10 9 10 11 11 10 7
23 22 22 19 17 15 12 10 14 12 9 9 8 7 5 3 0 1 2 4 4 5 6 7 8 8 9 8 8 7 9 10 10 11 11 10 10 10 11 10 11 12 11
12 19 18 16 15 14 12 11 12 10 9 9 8 7 6 4 2 1 4 4 4 5 6 7 8 8 9 10 9 8 9 11 10 11 12 12 12 13 10 10 11 10 10
7 15 15 13 13 13 13 11 13 11 9 8 7 6 5 3 2 2 3 4 5 6 7 8 9 9 9 9 9 10 11 12 14 14 14 15 17 15 14 13 11 11 10
7 11 16 18 16 14 13 12 11 11 8 6 6 4 4 2 1 3 4 5 5 7 9 9 8 9 8 8 8 10 13 15 17 17 16 18 14 18 18 15 16 12 14
5 7 9 14 16 13 13 12 12 11 8 7 6 5 4 3 3 4 4 4 6 8 9 9 9 8 9 10 9 11 12 15 17 19 20 21 20 22 17 19 16 13 11
3 4 4 9 11 10 11 12 12 9 9 7 5 5 4 3 3 3 4 6 6 7 7 8 9 8 8 10 8 11 16 18 19 21 22 22 22 23 21 18 18 15 13
4 4 4 8 9 10 11 11 11 8 9 7 6 5 4 3 2 3 5 6 7 6 7 8 8 9 9 7 10 13 18 20 22 23 23 21 24 33 27 16 15 15 13
2 4 5 10 11 10 10 10 9 8 7 6 7 6 4 3 2 3 5 6 7 6 7 9 9 10 8 10 12 19 20 23 23 22 22 19 27 26 31 33 30 23 16
3 3 6 7 9 9 10 10 9 8 7 7 6 4 4 3 3 3 5 6 5 5 7 8 9 8 9 10 17 28 21 24 22 19 19 18 15 20 19 22 26 28 26
4 6 8 7 12 12 11 9 10 9 8 7 6 5 5 4 2 4 4 5 3 4 6 8 7 7 8 12 18 30 21 21 21 18 17 17 17 17 18 15 14 15 16
5 4 6 5 11 13 12 9 9 10 9 9 7 6 5 4 4 3 3 3 4 5 6 6 6 6 9 14 16 26 20 21 23 15 13 14 15 19 15 13 13 12 13
4 5 4 3 10 10 10 9 9 9 9 7 7 6 5 4 4 3 2 3 3 6 5 7 5 4 9 14 18 22 15 20 17 20 14 18 16 14 6 7 9 10 10
4 4 5 5 8 10 11 10 9 10 9 7 5 5 5 6 5 5 3 4 5 6 7 8 5 6 9 12 19 23 17 16 16 14 12 10 13 10 7 5 7 3 4
7 3 4 5 8 11 11 11 10 9 7 6 6 7 6 5 5 2 3 6 6 8 8 3 5 4 6 9 15 22 20 25 15 16 13 12 16 20 16 11 10 11 6
10 5 4 6 8 10 10 10 9 5 6 6 4 5 6 5 4 5 7 7 7 6 3 3 5 4 6 7 13 19 19 21 14 13 20 21 22 19 18 22 19 15 9
11 11 8 6 9 13 12 11 8 7 6 5 2 6 10 6 6 6 7 6 4 2 2 4 4 4 5 7 9 9 10 15 16 14 10 14 13 20 17 15 15 12 11
7 9 11 9 2 3 9 10 6 9 10 9 5 3 12 12 9 8 3 4 6 4 3 3 3 4 5 7 7 7 8 6 11 12 11 7 3 6 7 10 12 12 10
7 8 9 11 11 8 9 5 15 13 12 10 7 10 12 9 8 8 5 17 8 9 10 5 1 4 2 7 11 11 14 15 13 11 11 13 12 9 8 9 9 7 9
Wind_Direction
179 170 172 171 158 165 170 179 179 171 185 189 200 206 234 234 241 79 297 306 336 253 273 296 295 296 294 108 265 294 310 312 311 328 294 287 291 241 238 243 233 227 226
175 167 175 174 168 171 174 176 187 171 188 197 232 178 228 260 259 245 212 200 234 233 249 251 243 259 263 202 229 251 282 271 301 287 280 264 275 259 250 247 248 232 224
171 167 176 175 177 175 177 179 189 177 175 212 221 184 232 236 248 240 217 288 269 253 228 234 245 250 265 249 228 228 244 259 250 213 232 286 249 300 268 235 237 240 228
166 169 175 180 185 180 174 176 178 188 177 198 235 220 232 221 218 208 184 195 248 248 235 226 236 248 267 268 250 253 255 269 263 234 229 230 275 300 306 304 265 240 220
178 171 175 180 194 182 174 172 175 181 196 184 227 222 219 257 10 27 24 344 299 321 266 276 306 282 244 269 287 284 280 279 274 257 235 225 227 229 256 276 284 288 266
174 175 175 168 189 185 178 168 167 177 187 178 187 232 285 328 351 10 309 286 349 331 349 29 0 333 319 311 312 303 287 264 269 266 266 247 218 211 235 241 262 268 283
132 185 177 169 177 189 180 164 163 173 183 186 190 193 192 140 245 245 313 359 332 322 324 12 332 318 328 321 314 305 298 290 280 267 262 256 254 249 238 242 246 249 270
153 215 175 170 171 190 180 171 164 170 182 186 162 109 121 218 245 60 10 320 293 305 340 337 344 327 307 302 303 299 298 294 292 296 288 263 262 257 248 242 244 257 242
184 173 170 173 173 178 175 181 160 167 172 143 138 157 168 173 26 339 301 279 330 324 317 325 311 309 301 305 302 296 298 297 291 283 283 286 285 267 262 249 236 241 250
224 166 173 167 167 172 173 170 147 153 172 153 165 170 157 170 170 242 264 283 290 290 304 300 294 296 296 295 299 302 304 306 295 291 290 291 292 289 277 265 254 244 240
270 157 157 157 166 176 171 173 155 163 169 171 178 147 151 165 208 262 282 288 312 309 296 293 286 283 294 305 302 301 296 303 300 293 287 291 293 285 278 270 254 245 224
232 180 169 174 178 182 166 171 157 157 167 192 138 155 150 176 257 280 313 329 321 303 290 288 299 300 297 301 295 296 302 298 295 293 286 285 283 283 284 270 258 248 242
303 315 192 176 170 173 163 157 151 159 175 140 178 180 170 187 232 263 277 281 274 277 282 294 299 313 310 302 302 298 318 312 301 289 283 280 282 279 271 266 262 249 239
215 256 276 139 154 154 150 154 155 163 162 168 188 200 188 198 241 264 280 282 286 291 306 322 312 313 312 299 310 323 320 306 293 285 279 277 273 267 269 262 257 253 247
171 270 269 146 147 148 145 150 150 169 154 168 200 204 196 211 247 282 295 302 307 314 330 314 322 307 301 311 340 326 311 298 293 284 272 264 259 262 261 266 258 252 247
222 283 275 151 153 153 149 148 153 152 148 169 207 203 196 231 267 284 295 306 295 332 340 317 314 319 312 335 327 322 313 306 291 288 277 265 262 258 260 258 252 249 242
349 260 209 181 162 162 155 159 161 148 163 192 205 192 205 228 244 277 283 285 326 343 326 323 314 326 331 327 327 319 315 304 292 282 278 271 262 260 260 250 245 237 234
3 352 314 200 161 163 157 158 165 167 163 193 209 194 205 224 247 273 300 313 328 339 321 302 323 338 328 332 322 328 316 321 308 289 274 268 267 259 257 259 251 235 225
5 324 305 279 158 161 161 159 163 158 179 194 203 204 197 211 234 254 314 327 321 322 304 306 333 337 337 333 324 338 326 332 325 302 278 265 262 261 246 249 251 238 229
306 280 279 256 145 160 152 147 159 168 191 198 201 187 181 218 232 265 285 316 295 288 294 313 304 38 341 334 332 340 341 338 330 337 307 271 250 270 274 256 242 237 226
273 263 252 222 159 147 149 164 173 195 195 192 171 170 193 214 222 237 224 271 275 276 291 286 286 59 5 337 334 341 352 345 334 345 346 353 30 34 60 71 11 360 292
316 252 220 206 157 159 161 173 197 192 177 161 184 192 200 221 238 254 265 255 258 276 273 282 19 47 358 348 340 331 348 342 341 351 1 355 16 45 42 55 48 36 41
340 280 229 210 159 166 168 183 199 186 147 161 192 222 227 216 238 236 251 256 262 249 258 8 11 9 339 350 347 327 350 351 342 342 349 346 21 39 45 45 44 39 40
342 337 324 225 180 174 180 188 177 162 153 159 94 333 306 256 244 244 246 246 119 63 7 38 344 346 343 351 350 330 356 354 358 340 333 344 12 44 41 44 48 50 48
324 331 330 328 347 320 218 173 118 98 59 66 73 257 251 231 231 234 358 90 50 55 79 66 20 8 356 337 310 291 338 355 5 359 9 4 12 36 48 58 55 49 42
324 318 319 318 318 350 97 99 93 114 130 175 210 236 265 259 211 147 99 46 86 97 95 91 87 154 180 302 353 357 339 12 11 21 9 12 14 27 29 48 64 68 64